EW5925 Weather Reports


time (UTC)temp
C
wind
direction
speed
KPH
gust
KPH
rain 1hr
cm
rain 24hr
cm
rain mn
cm
humidity
%
barometer
mb
20260903202333 13 189 0.0 0.0 0.00 0.03 0.03 91 1019.3
20260903201833 13 189 0.0 0.0 0.00 0.03 0.03 91 1019.3
20260903201332 13 189 0.0 0.0 0.00 0.03 0.03 91 1019.2
20260903200831 13 189 0.0 0.0 0.00 0.03 0.03 91 1019.1
20260903200327 13 189 0.0 0.0 0.03 0.03 0.03 91 1019.0
20260903195826 13 189 0.0 0.0 0.03 0.03 0.03 91 1018.9
20260903195325 13 189 0.0 0.0 0.03 0.03 0.03 91 1018.9
20260903194821 13 189 0.0 0.0 0.03 0.03 0.03 91 1018.8
20260903194322 13 189 0.0 0.0 0.03 0.03 0.03 91 1018.8
20260903193820 13 189 0.0 0.0 0.03 0.03 0.03 91 1018.7
20260903193316 13 189 0.0 0.0 0.03 0.03 0.03 91 1018.7
20260903193033 13 189 0.0 0.0 0.03 0.03 0.03 91 1018.6
20260903192308 13 189 0.0 0.0 0.03 0.03 0.03 91 1018.6
20260903191806 13 189 0.0 1.6 0.03 0.03 0.03 90 1018.6
20260903191307 13 189 0.0 1.6 0.03 0.03 0.03 91 1018.7
20260903190749 13 189 0.0 0.0 0.03 0.03 0.03 91 1018.7
20260903190252 13 189 0.0 0.0 0.00 0.00 0.00 91 1018.6
20260903185722 13 189 0.0 0.0 0.00 0.00 0.00 90 1018.5
20260903185210 14 189 0.0 0.0 0.00 0.00 0.00 90 1018.4
20260903184708 14 189 0.0 0.0 0.00 0.00 0.00 90 1018.3
20260903184206 14 189 0.0 0.0 0.00 0.00 0.00 90 1018.2
20260903183925 14 189 0.0 0.0 0.00 0.00 0.00 90 1018.1
20260903183203 14 189 0.0 1.6 0.00 0.00 0.00 90 1018.1
20260903182659 14 189 0.0 3.2 0.00 0.00 0.00 90 1018.1
20260903182159 14 189 0.0 3.2 0.00 0.00 0.00 90 1018.1
20260903181700 14 189 0.0 0.0 0.00 0.00 0.00 90 1018.0
20260903181154 14 189 0.0 0.0 0.00 0.00 0.00 90 1018.0
20260903180910 14 189 0.0 0.0 0.00 0.00 0.00 89 1018.0
20260903180150 15 189 0.0 0.0 0.00 0.00 0.00 89 1018.0
20260903175651 15 189 0.0 0.0 0.00 0.00 0.00 89 1017.9
20260903175128 15 189 0.0 0.0 0.00 0.00 0.00 89 1017.9
20260903174855 15 189 0.0 0.0 0.00 0.00 0.00 89 1017.9
20260903174605 15 189 0.0 1.6 0.00 0.00 0.00 89 1018.0
20260903173621 15 189 0.0 3.2 0.00 0.00 0.00 89 1017.9
20260903173120 15 189 0.0 3.2 0.00 0.00 0.00 89 1017.9
20260903172614 15 189 0.0 3.2 0.00 0.00 0.00 89 1017.9
20260903172113 15 189 0.0 3.2 0.00 0.00 0.00 89 1017.8
20260903171609 15 189 0.0 0.0 0.00 0.00 0.00 89 1017.8
20260903171108 16 189 0.0 0.0 0.00 0.00 0.00 89 1017.7
20260903170832 16 189 0.0 3.2 0.00 0.00 0.00 89 1017.8
20260903170118 16 189 0.0 3.2 0.00 0.00 0.00 89 1017.7
20260903165601 16 189 0.0 4.8 0.00 0.00 0.00 88 1017.7
20260903165100 16 189 1.6 4.8 0.00 0.00 0.00 88 1017.8
20260903164814 16 333 0.0 3.2 0.00 0.00 0.00 88 1017.9
20260903164051 16 333 0.0 0.0 0.00 0.00 0.00 88 1017.7
20260903163549 16 333 0.0 0.0 0.00 0.00 0.00 88 1017.8
20260903163309 16 333 0.0 0.0 0.00 0.00 0.00 88 1017.8
20260903162523 17 333 0.0 0.0 0.00 0.00 0.00 88 1017.9
20260903162024 17 333 0.0 0.0 0.00 0.00 0.00 88 1018.0
20260903161519 17 333 0.0 0.0 0.00 0.00 0.00 88 1017.9
20260903161018 17 333 0.0 1.6 0.00 0.00 0.00 88 1018.0
20260903160512 17 333 0.0 1.6 0.00 0.00 0.00 88 1018.0
20260903160011 17 333 0.0 1.6 0.00 0.00 0.00 88 1017.9
20260903155507 17 333 0.0 1.6 0.00 0.00 0.00 88 1017.9
20260903155006 17 333 0.0 0.0 0.00 0.00 0.00 88 1018.0
20260903154504 18 333 0.0 0.0 0.00 0.00 0.00 88 1018.0
20260903154231 18 333 0.0 0.0 0.00 0.00 0.00 88 1018.0
20260903153501 18 333 0.0 0.0 0.00 0.00 0.00 88 1018.0
20260903153218 18 333 0.0 0.0 0.00 0.00 0.00 88 1018.0
20260903152450 18 333 0.0 0.0 0.00 0.00 0.00 88 1018.1
20260903151948 18 333 0.0 0.0 0.00 0.00 0.00 88 1018.0
20260903151447 18 333 0.0 8.0 0.00 0.00 0.00 89 1018.0
20260903150949 18 333 0.0 8.0 0.00 0.00 0.00 89 1018.1
20260903150435 18 333 1.6 8.0 0.00 0.00 0.00 89 1018.1
20260903145853 18 340 1.6 8.0 0.00 0.00 0.00 89 1018.1
20260903145329 18 339 3.2 8.0 0.00 0.00 0.00 89 1018.1
20260903144829 18 345 3.2 8.0 0.00 0.00 0.00 89 1018.0
20260903144323 18 1 3.2 6.4 0.00 0.00 0.00 88 1018.1
20260903144042 18 0 1.6 4.8 0.00 0.00 0.00 88 1018.1
20260903143318 18 0 0.0 3.2 0.00 0.00 0.00 88 1018.0
20260903142816 18 0 0.0 1.6 0.00 0.00 0.00 88 1018.1
20260903142315 18 0 0.0 0.0 0.00 0.00 0.00 88 1018.1
20260903141813 18 0 0.0 0.0 0.00 0.00 0.00 87 1018.1
20260903141311 18 0 0.0 0.0 0.00 0.00 0.00 87 1018.1
20260903140813 18 0 0.0 1.6 0.00 0.00 0.00 87 1018.2
20260903140311 18 0 0.0 3.2 0.00 0.00 0.00 87 1018.1
20260903135807 18 0 0.0 3.2 0.00 0.00 0.00 87 1018.0
20260903135306 19 0 0.0 3.2 0.00 0.00 0.00 87 1018.0
20260903135242 19 0 0.0 4.8 0.00 0.00 0.00 87 1018.0
20260903134305 19 0 0.0 3.2 0.00 0.00 0.00 87 1017.9
20260903133751 19 0 0.0 3.2 0.00 0.00 0.00 87 1017.9
20260903133515 19 0 0.0 3.2 0.00 0.00 0.00 87 1018.0
20260903132749 19 0 0.0 3.2 0.00 0.00 0.00 87 1018.0
20260903132248 19 0 1.6 4.8 0.00 0.00 0.00 88 1017.9
20260903131745 19 0 3.2 9.7 0.00 0.00 0.00 88 1018.0
20260903131243 19 351 3.2 9.7 0.00 0.00 0.00 87 1018.1
20260903131229 19 8 3.2 6.4 0.00 0.00 0.00 87 1018.1
20260903130240 20 333 3.2 11.3 0.00 0.00 0.00 88 1018.1
20260903125738 20 347 3.2 11.3 0.00 0.00 0.00 88 1018.1
20260903125237 20 9 3.2 12.9 0.00 0.00 0.00 88 1018.1
20260903124735 20 352 4.8 12.9 0.00 0.00 0.00 88 1018.1
20260903124227 20 357 4.8 12.9 0.00 0.00 0.00 88 1018.0
20260903124212 20 355 4.8 14.5 0.00 0.00 0.00 88 1018.1
20260903123225 20 354 4.8 14.5 0.00 0.00 0.00 88 1018.0
20260903123205 20 337 4.8 11.3 0.00 0.00 0.00 88 1018.1
20260903122215 20 349 3.2 11.3 0.00 0.00 0.00 87 1018.1
20260903121716 20 351 3.2 8.0 0.00 0.00 0.00 87 1018.1
20260903121139 20 22 3.2 11.3 0.00 0.00 0.00 87 1018.0
20260903120610 20 338 3.2 11.3 0.00 0.00 0.00 87 1018.0
20260903120056 20 327 3.2 14.5 0.00 0.00 0.00 87 1018.0
20260903115514 20 0 3.2 14.5 0.00 0.00 0.00 87 1018.0
20260903114946 20 47 3.2 8.0 0.00 0.00 0.00 87 1018.0
20260903114638 20 343 1.6 8.0 0.00 0.00 0.00 86 1018.0
20260903114333 20 6 3.2 8.0 0.00 0.00 0.00 86 1017.9
20260903113325 20 10 3.2 9.7 0.00 0.00 0.00 86 1017.9
20260903113033 20 7 3.2 11.3 0.00 0.00 0.00 86 1017.8
20260903112230 20 16 4.8 11.3 0.00 0.00 0.00 86 1017.9
20260903111721 20 358 4.8 16.1 0.00 0.00 0.00 86 1017.8
20260903111442 20 355 4.8 16.1 0.00 0.00 0.00 87 1017.8
20260903110731 20 30 6.4 16.1 0.00 0.00 0.00 87 1017.7
20260903110216 20 358 6.4 16.1 0.00 0.00 0.00 87 1017.8
20260903105715 20 350 6.4 19.3 0.00 0.00 0.00 87 1017.7
20260903105216 20 4 6.4 19.3 0.00 0.00 0.00 87 1017.7
20260903104714 20 6 4.8 14.5 0.00 0.00 0.00 87 1017.7
20260903104208 20 17 4.8 16.1 0.00 0.00 0.00 87 1017.7
20260903103705 20 345 4.8 16.1 0.00 0.00 0.00 87 1017.7
20260903103421 20 358 4.8 12.9 0.00 0.00 0.00 87 1017.7
20260903102700 20 329 3.2 9.7 0.00 0.00 0.00 86 1017.7
20260903102157 20 48 1.6 8.0 0.00 0.00 0.00 86 1017.7
20260903101657 20 333 1.6 8.0 0.00 0.00 0.00 86 1017.7
20260903101157 20 41 1.6 6.4 0.00 0.00 0.00 85 1017.6
20260903100656 20 34 1.6 6.4 0.00 0.00 0.00 85 1017.5
20260903100419 20 13 3.2 11.3 0.00 0.00 0.00 85 1017.5
20260903095657 20 0 3.2 9.7 0.00 0.00 0.00 85 1017.5
20260903095133 20 46 4.8 12.9 0.00 0.00 0.00 85 1017.4
20260903094602 20 346 4.8 11.3 0.00 0.00 0.00 85 1017.4
20260903094034 20 345 4.8 11.3 0.00 0.00 0.00 84 1017.4
20260903093506 20 0 4.8 16.1 0.00 0.00 0.00 84 1017.4
20260903092940 20 350 4.8 16.1 0.00 0.00 0.00 84 1017.3
20260903092420 20 337 3.2 9.7 0.00 0.00 0.00 84 1017.2
20260903091922 21 339 3.2 9.7 0.00 0.00 0.00 84 1017.2
20260903091413 21 5 3.2 9.7 0.00 0.00 0.00 84 1017.1
20260903090912 21 339 3.2 16.1 0.00 0.00 0.00 84 1017.2
20260903090412 21 342 4.8 16.1 0.00 0.00 0.00 84 1017.1
20260903085913 21 2 6.4 16.1 0.00 0.00 0.00 84 1017.1
20260903085634 21 352 8.0 16.1 0.00 0.00 0.00 84 1017.1
20260903084911 21 62 6.4 16.1 0.00 0.00 0.00 84 1017.0
20260903084410 21 16 6.4 14.5 0.00 0.00 0.00 83 1017.0
20260903084400 21 32 6.4 14.5 0.00 0.00 0.00 83 1017.0
20260903083635 21 344 6.4 14.5 0.00 0.00 0.00 83 1017.0
20260903082911 21 341 6.4 14.5 0.00 0.00 0.00 83 1016.9
20260903082411 21 335 4.8 11.3 0.00 0.00 0.00 82 1016.9
20260903081911 21 349 6.4 14.5 0.00 0.00 0.00 82 1016.8
20260903081412 21 355 6.4 14.5 0.00 0.00 0.00 82 1016.7
20260903080857 21 356 4.8 12.9 0.00 0.00 0.00 82 1016.8
20260903080357 21 317 6.4 12.9 0.00 0.00 0.00 82 1016.8
20260903075857 21 324 8.0 17.7 0.00 0.00 0.00 82 1016.8
20260903075357 21 26 8.0 17.7 0.00 0.00 0.00 81 1016.7
20260903075100 21 299 6.4 17.7 0.00 0.00 0.00 80 1016.7
20260903074940 21 324 8.0 17.7 0.00 0.00 0.00 81 1016.8
20260903073859 22 0 4.8 14.5 0.00 0.00 0.00 80 1016.6
20260903073355 22 56 6.4 16.1 0.00 0.00 0.00 79 1016.6
20260903072924 22 35 6.4 17.7 0.00 0.00 0.00 78 1016.6
20260903072854 22 343 8.0 16.1 0.00 0.00 0.00 79 1016.6
20260903072549 22 343 6.4 20.9 0.00 0.00 0.00 77 1016.5
20260903071952 22 14 6.4 17.7 0.00 0.00 0.00 78 1016.5
20260903070856 22 359 6.4 20.9 0.00 0.00 0.00 77 1016.3
20260903070326 22 2 8.0 27.4 0.00 0.00 0.00 76 1016.5
20260903065829 22 350 8.0 27.4 0.00 0.00 0.00 75 1016.3
20260903065325 23 338 8.0 22.5 0.00 0.00 0.00 74 1016.3
20260903065044 23 314 8.0 22.5 0.00 0.00 0.00 73 1016.2
20260903064325 23 337 8.0 22.5 0.00 0.00 0.00 72 1016.2
20260903063824 23 345 9.7 22.5 0.00 0.00 0.00 71 1016.3
20260903063326 23 334 9.7 22.5 0.00 0.00 0.00 70 1016.3
20260903062823 23 324 9.7 20.9 0.00 0.00 0.00 69 1016.3
20260903062322 24 322 9.7 20.9 0.00 0.00 0.00 68 1016.5
20260903061823 24 320 8.0 19.3 0.00 0.00 0.00 67 1016.3
20260903061322 25 0 6.4 14.5 0.00 0.00 0.00 65 1016.5
20260903060824 25 20 6.4 14.5 0.00 0.00 0.00 65 1016.5
20260903060322 25 1 6.4 14.5 0.00 0.00 0.00 65 1016.2
20260903055823 25 6 4.8 14.5 0.00 0.00 0.00 64 1016.2
20260903055547 25 14 4.8 14.5 0.00 0.00 0.00 65 1016.2
20260903055043 25 353 6.4 19.3 0.00 0.00 0.00 63 1016.2
20260903054311 25 339 6.4 19.3 0.00 0.00 0.00 63 1016.2
20260903053810 25 335 4.8 19.3 0.00 0.00 0.00 64 1016.1
20260903053753 25 76 4.8 14.5 0.00 0.00 0.00 64 1016.1
20260903052810 26 20 6.4 14.5 0.00 0.00 0.00 64 1016.2
20260903052310 26 58 6.4 16.1 0.00 0.00 0.00 62 1016.3
20260903051808 26 346 6.4 16.1 0.00 0.00 0.00 61 1016.3
20260903051535 26 338 4.8 16.1 0.00 0.00 0.00 59 1016.3
20260903050818 26 43 4.8 11.3 0.00 0.00 0.00 60 1016.3
20260903050317 26 49 4.8 14.5 0.00 0.00 0.00 59 1016.3
20260903045804 27 330 4.8 14.5 0.00 0.00 0.00 58 1016.5
20260903045306 27 14 4.8 11.3 0.00 0.00 0.00 58 1016.6
20260903044802 27 50 4.8 11.3 0.00 0.00 0.00 57 1016.7
20260903044303 27 50 3.2 11.3 0.00 0.00 0.00 58 1016.7
20260903043801 27 49 4.8 12.9 0.00 0.00 0.00 58 1016.8
20260903043303 27 65 4.8 16.1 0.00 0.00 0.00 57 1016.9
20260903042749 27 342 4.8 16.1 0.00 0.00 0.00 56 1016.9
20260903042249 27 16 4.8 11.3 0.00 0.00 0.00 56 1016.9
20260903041747 27 4 4.8 11.3 0.00 0.00 0.00 57 1016.9
20260903041245 27 52 4.8 16.1 0.00 0.00 0.00 57 1017.0
20260903040744 27 22 6.4 16.1 0.00 0.00 0.00 57 1017.1
20260903040243 27 358 6.4 14.5 0.00 0.00 0.00 57 1017.1
20260903040008 27 37 6.4 14.5 0.00 0.00 0.00 56 1017.1
20260903035504 27 73 4.8 12.9 0.00 0.00 0.00 57 1017.1
20260903034734 27 0 4.8 16.1 0.00 0.00 0.00 56 1017.2
20260903034233 27 316 6.4 16.1 0.00 0.00 0.00 56 1017.3
20260903033730 27 35 4.8 12.9 0.00 0.00 0.00 56 1017.4
20260903033232 27 2 4.8 16.1 0.00 0.00 0.00 57 1017.5
20260903032712 27 22 6.4 19.3 0.00 0.00 0.00 57 1017.6
20260903032213 27 18 6.4 19.3 0.00 0.00 0.00 57 1017.6
20260903031705 27 352 4.8 16.1 0.00 0.00 0.00 57 1017.7
20260903031202 27 48 4.8 16.1 0.00 0.00 0.00 56 1017.7
20260903030701 27 76 4.8 16.1 0.00 0.00 0.00 55 1017.9
20260903030159 27 29 6.4 16.1 0.00 0.00 0.00 54 1017.9
20260903025656 26 24 6.4 12.9 0.00 0.00 0.00 54 1018.0
20260903025156 26 299 4.8 17.7 0.00 0.00 0.00 55 1018.1
20260903024652 26 89 4.8 17.7 0.00 0.00 0.00 56 1018.1
20260903024152 26 64 6.4 17.7 0.00 0.00 0.00 56 1018.2
20260903023644 26 348 6.4 17.7 0.00 0.00 0.00 55 1018.3
20260903023142 26 342 6.4 16.1 0.00 0.00 0.00 54 1018.4
20260903022640 26 28 6.4 16.1 0.00 0.00 0.00 53 1018.7
20260903022411 27 47 6.4 16.1 0.00 0.00 0.00 52 1018.8
20260903021849 27 77 4.8 14.5 0.00 0.00 0.00 53 1018.8
20260903021342 27 341 4.8 14.5 0.00 0.00 0.00 52 1018.8
20260903020606 27 9 4.8 11.3 0.00 0.00 0.00 50 1019.0
20260903020108 27 39 4.8 11.3 0.00 0.00 0.00 50 1019.1
20260903015558 26 1 6.4 11.3 0.00 0.00 0.00 49 1019.1
20260903015057 26 1 4.8 11.3 0.00 0.00 0.00 49 1019.3
20260903014554 26 60 3.2 11.3 0.00 0.00 0.00 50 1019.3
20260903014312 26 49 3.2 11.3 0.00 0.00 0.00 51 1019.5
20260903013551 26 66 4.8 11.3 0.00 0.00 0.00 51 1019.5
20260903013310 26 53 4.8 17.7 0.00 0.00 0.00 51 1019.6
20260903012550 26 8 4.8 17.7 0.00 0.00 0.00 50 1019.7
20260903012047 26 327 4.8 12.9 0.00 0.00 0.00 51 1019.9
20260903011542 26 64 4.8 12.9 0.00 0.00 0.00 52 1020.0
20260903011040 26 16 4.8 12.9 0.00 0.00 0.00 52 1020.0
20260903010540 26 9 3.2 9.7 0.00 0.00 0.00 52 1020.1
20260903010055 26 358 3.2 11.3 0.00 0.00 0.00 53 1020.2
20260903005516 26 7 3.2 11.3 0.00 0.00 0.00 52 1020.3
20260903004949 26 348 4.8 12.9 0.00 0.00 0.00 54 1020.4
20260903004422 26 47 4.8 12.9 0.00 0.00 0.00 54 1020.5
20260903003903 26 277 3.2 11.3 0.00 0.00 0.00 54 1020.6
20260903003629 26 359 3.2 9.7 0.00 0.00 0.00 54 1020.7
20260903002839 26 18 4.8 11.3 0.00 0.00 0.00 55 1020.7
20260903002536 25 325 4.8 11.3 0.00 0.00 0.00 54 1020.8
20260903001741 25 333 3.2 11.3 0.00 0.00 0.00 54 1020.8
20260903001228 25 322 1.6 8.0 0.00 0.00 0.00 54 1020.9
20260903000650 25 318 3.2 9.7 0.00 0.00 0.00 56 1021.1
20260903000125 24 320 4.8 9.7 0.00 0.00 0.00 57 1021.2
20260902235821 23 356 4.8 12.9 0.00 0.00 0.00 57 1021.3
20260902235034 23 342 3.2 12.9 0.00 0.00 0.00 58 1021.2
20260902234506 23 310 3.2 9.7 0.00 0.00 0.00 60 1021.2
20260902233943 23 337 1.6 8.0 0.00 0.00 0.00 61 1021.2
20260902233414 22 359 1.6 11.3 0.00 0.00 0.00 63 1021.1
20260902233112 22 359 3.2 11.3 0.00 0.00 0.00 64 1021.1
20260902232553 22 323 3.2 8.0 0.00 0.00 0.00 67 1021.2
20260902232050 21 324 3.2 8.0 0.00 0.00 0.00 66 1021.2
20260902231305 21 322 3.2 6.4 0.00 0.00 0.00 69 1021.2
20260902230751 20 318 4.8 11.3 0.00 0.00 0.00 71 1021.3
20260902230209 20 322 4.8 11.3 0.00 0.00 0.00 72 1021.3
20260902225657 20 3 4.8 9.7 0.00 0.00 0.00 75 1021.4
20260902225131 19 337 3.2 9.7 0.00 0.00 0.00 77 1021.4
20260902224553 18 310 3.2 9.7 0.00 0.00 0.00 81 1021.4
20260902224036 18 336 3.2 9.7 0.00 0.00 0.00 83 1021.5
20260902223536 18 6 1.6 8.0 0.00 0.00 0.00 85 1021.5
20260902223257 17 315 1.6 8.0 0.00 0.00 0.00 87 1021.5
20260902222534 17 219 1.6 8.0 0.00 0.00 0.00 89 1021.5
20260902222250 16 258 0.0 4.8 0.00 0.00 0.00 91 1021.5
20260902221532 16 258 1.6 4.8 0.00 0.00 0.00 93 1021.4
20260902221033 15 251 1.6 4.8 0.00 0.00 0.00 93 1021.3
20260902220533 15 251 0.0 4.8 0.00 0.00 0.00 94 1021.3
20260902220030 15 245 0.0 6.4 0.00 0.00 0.00 94 1021.2
20260902215530 14 245 0.0 6.4 0.00 0.00 0.00 94 1021.1
20260902215030 14 245 1.6 6.4 0.00 0.00 0.00 94 1021.1
20260902214525 14 245 0.0 6.4 0.00 0.00 0.00 94 1021.1
20260902214022 13 342 0.0 3.2 0.00 0.00 0.00 94 1021.3
20260902213532 13 342 0.0 3.2 0.00 0.00 0.00 94 1021.3
20260902213021 13 342 0.0 3.2 0.00 0.00 0.00 94 1021.3
20260902212507 13 342 0.0 1.6 0.00 0.00 0.00 93 1021.3
20260902212020 12 342 0.0 3.2 0.00 0.00 0.00 93 1021.3
20260902211733 12 342 0.0 3.2 0.00 0.00 0.00 93 1021.3
20260902211228 12 342 0.0 0.0 0.00 0.00 0.00 93 1021.3
20260902210503 12 342 0.0 0.0 0.00 0.00 0.00 92 1021.2
20260902210000 11 342 0.0 0.0 0.00 0.00 0.00 92 1021.1
20260902205459 11 342 0.0 0.0 0.00 0.00 0.00 92 1021.1
20260902205001 11 342 0.0 0.0 0.00 0.00 0.00 92 1021.0
20260902204458 11 342 0.0 0.0 0.00 0.00 0.00 91 1020.9
20260902203957 11 342 0.0 0.0 0.00 0.00 0.00 91 1020.8
20260902203500 11 342 0.0 0.0 0.00 0.00 0.00 91 1020.7